sat.trackr.live / text

‹ back to catalog

TIANQI-39

NORAD 67478 · 2026-010C

PAYLOAD ACTIVE UNKNOWN

§ Identity

Operator
Country
PRC
Launch date
2026-01-15
Launch site
YSLA
Launch vehicle
Mass (kg)
RCS (m²)

External: N2YO · Heavens-Above · Gunter

§ Orbital elements

Epoch: 2026-09-20T05:59:51.125856Z

Period
102.91 min
Inclination
44.9813°
Eccentricity
0.0012753
Mean motion
13.99237068 rev/d
Perigee alt
887.2 km
Apogee alt
905.7 km
Semi-major
7,274.6 km
B*
8.7544e-5
RAAN
14.6633°
Arg perigee
82.9166°
Mean anomaly
277.3116°
Rev number
3,476

§ Raw data

TIANQI-391 67478U 26010C   26263.24989729 -.00000001  00000+0  87544-4 0  99932 67478  44.9813  14.6633 0012753  82.9166 277.3116 13.99237068 34761

JSON: /api/v1/satellites/67478 · /tle

For live sub-satellite position, see the globe view (requires WebGL).

§ Visibility from observer

Set your observer location to see the next 7 days of passes ≥ 10°. The values pass through the URL so the page stays shareable.

No JS? Fill the form by hand. The geolocation button needs JavaScript.